Location: Breux
(46.3269°N, 3.2993°E)
Time: 02:05:05
(UTC+00:00)

SL-08 RB Rocket - Pass Details

Date: 09 April 2020
Orbit: 646 x 685 km, 97.8° (Epoch: 05 June)

Event Time Altitude Azimuth Distance (km) Brightness Sun altitude
Exits shadow 18:56:15 - 143° (SE) 2,888 6.5 -5.7°
Reaches altitude 10° 18:58:18 10° 137° (SE) 2,087 5.7 -6.1°
Maximum altitude 19:02:32 39° 69° (ENE) 1,014 4.3 -6.8°
Drops below altitude 10° 19:06:50 10° 1° (N) 2,123 6.6 -7.5°
Sets 19:09:11 0° 354° (N) 3,048 7.5 -7.8°
